Miscellaneous Local Product
Issued by NWS North Platte, NE

Home | Current Version | Previous Version | Text Only | Print | Product List | Glossary On
Versions: 1 2 3 4 5 6 7 8 9 10 11 12 13 14 15 16 17 18 19 20 21 22 23 24 25 26 27 28 29 30 31 32 33 34 35 36 37 38 39 40 41 42 43 44 45 46 47 48 49 50
000
AXUS43 KLBF 281410
MISLBF


WESTERN AND NORTH CENTRAL NEBRASKA HOURLY WEATHER ROUNDUP
NATIONAL WEATHER SERVICE NORTH PLATTE NE
900 AM CDT SAT MAY 28 2016

NOTE: "FAIR" INDICATES FEW OR NO CLOUDS BELOW 12,000 FEET WITH NO
SIGNIFICANT WEATHER AND/OR OBSTRUCTIONS TO VISIBILITY.

NOTE: STATIONS NOT REPORTING VARIABLES SUCH AS SKY/WEATHER OR
PRESSURE ARE PROVIDED BY RAWS AND APRS NETWORKS AND ARE NOT UNDER
NATIONAL WEATHER SERVICE QUALITY CONTROL.

...OBSERVATIONS IN AND NEAR THE EASTERN PANHANDLE OF NEBRASKA...

CITY           SKY/WX    TMP DP  RH WIND       PRES   REMARKS
PINE RIDGE     SUNNY     53  47  79 CALM      29.91R
CHADRON        SUNNY     53  47  79 W6        29.92R
ALLIANCE       SUNNY     52  46  80 W7        29.93R
SIDNEY         SUNNY     53  46  77 W9        29.97R
CRESCENT LAKE    N/A     55  50  83 W6          N/A
BIG SPRINGS      N/A     49  47  93 W6          N/A
$$

...OBSERVATIONS IN NORTHERN NEBRASKA AND FAR SOUTHERN SOUTH DAKOTA...

CITY           SKY/WX    TMP DP  RH WIND       PRES   REMARKS
WINNER         CLOUDY    59  54  83 NW8       29.84R
VALENTINE      CLOUDY    56  51  84 NW8       29.87R
THEDFORD       CLOUDY    56  53  91 W5        29.89R
AINSWORTH      RAIN      57  53  86 NW12      29.85S
O`NEILL        RAIN      57  56  94 NW8       29.80R
ORD            CLOUDY    58  55  90 NW6       29.80R
BROKEN BOW     CLOUDY    58  53  84 NW13      29.84S
BUTTE            N/A     57  56  97 NW5         N/A
CHAMBERS         N/A     58  57  96 W3          N/A
EWING            N/A     57  56  96 W9          N/A
$$

...OBSERVATIONS IN SOUTHWEST NEBRASKA AND FAR NORTHEAST COLORADO...

CITY           SKY/WX    TMP DP  RH WIND       PRES   REMARKS
WRAY           FAIR      50  46  87 W6        29.95
HOLYOKE        FAIR      59  50  72 NW8       29.96R
IMPERIAL       SUNNY     57  50  77 NW7       29.93R
OGALLALA       SUNNY     58  52  80 CALM      29.93R
NORTH PLATTE   SUNNY     56  51  84 W10       29.90R
MCCOOK         SUNNY     58  54  86 W12       29.90R
LEXINGTON      MOSUNNY   60  55  85 W15       29.87R
PAXTON           N/A     51  49  93 W3          N/A
STAPLETON        N/A     57  53  87 CALM        N/A
GOTHENBURG       N/A     56  52  88 W6          N/A
CALLAWAY         N/A     54  52  93 NW9         N/A
$$

...OBSERVATIONS IN CENTRAL LINCOLN COUNTY AREA...

CITY           SKY/WX    TMP DP  RH WIND       PRES   REMARKS
N.P. AIRPORT   SUNNY     56  51  84 W10       29.90R
N.P. DOWNTOWN    N/A     58  53  83 W3          N/A
N.P. SOUTHEAST   N/A     57  51  81 NW3         N/A
N.P. HILLCREST   N/A     56  52  88 W8          N/A
$$

...SOME OBSERVATIONS FROM AROUND THE REGION...

CITY           SKY/WX    TMP DP  RH WIND       PRES   REMARKS
DENVER         MOSUNNY   54  42  64 SW9       30.03R
LARAMIE        MOSUNNY   48  37  65 SW9       30.06R
CHEYENNE       CLOUDY    55  39  54 W12       30.02R
SCOTTSBLUFF    SUNNY     52  44  74 NW9       29.95R
RAPID CITY     SUNNY     61  47  59 CALM      29.90S
BISMARCK       CLOUDY    59  55  87 NE8       29.88R
PIERRE         CLOUDY    59  54  83 NW10      29.82R
SIOUX FALLS    LGT RAIN  61  59  93 E6        29.75S FOG
OMAHA          PTSUNNY   64  58  80 S9        29.77R
GRAND ISLAND   CLOUDY    59  56  89 W12       29.82R
KANSAS CITY    PTSUNNY   65  61  87 S14       29.79R
WICHITA        MOSUNNY   66  58  75 W10       29.88R
OKLAHOMA CITY  PTSUNNY   67  62  84 S7        29.94R
DALLAS         PTSUNNY   70  65  84 S5        29.94R
AMARILLO       SUNNY     61  46  57 N10       30.04R
DODGE CITY     SUNNY     58  51  78 W9        29.95R
HAYS           SUNNY     57  48  72 W12       29.89R
GOODLAND       SUNNY     56  49  77 NW9       29.96R
$$




USA.gov is the U.S. government's official web portal to all federal, state and local government web resources and services.